Theta_e
364 362 364 363 361 357 357 360 352 354 349 347 349 347 346 344 343 342 343 338 339 339 339 337 338 337 335 335 335 335 334 333 332 333 334 332 332 332 331 331 331 329 330
365 365 363 364 365 362 358 358 356 352 352 352 349 348 347 344 342 343 342 339 338 340 339 338 335 337 336 334 333 333 333 335 334 334 333 332 332 330 332 331 330 330 328
366 366 366 364 365 365 361 358 356 356 352 352 350 348 348 346 342 342 342 341 339 341 339 336 334 335 337 337 336 336 335 335 335 335 334 333 331 332 332 332 330 330 328
367 366 366 366 365 365 364 361 361 358 358 353 352 349 348 347 345 343 342 341 337 340 340 339 338 338 336 336 335 336 336 334 334 333 333 333 332 331 332 332 329 328 329
366 366 365 366 366 365 365 364 359 362 359 358 353 350 349 347 346 344 342 342 337 341 339 338 338 339 337 336 336 335 336 335 334 333 334 333 332 332 331 330 329 329 328
363 364 364 364 366 366 365 364 364 359 361 359 356 351 350 349 348 346 344 342 340 341 339 337 340 338 337 338 338 337 336 335 335 333 333 331 331 332 331 330 329 328 325
358 362 363 363 364 365 365 364 364 362 361 362 358 354 351 350 348 347 345 342 339 339 342 338 341 339 337 338 338 336 335 334 333 332 332 331 331 329 329 329 328 328 327
356 358 362 363 364 366 365 364 363 363 362 362 360 356 352 351 350 347 344 341 339 342 341 341 341 339 334 336 337 337 336 333 330 332 332 331 331 330 329 328 328 326 322
356 357 361 363 364 365 366 365 363 363 363 363 360 356 353 350 350 346 341 335 337 339 340 340 340 338 334 336 334 332 332 331 331 330 331 329 328 330 330 328 326 322 320
354 359 360 362 363 366 366 365 364 363 362 361 358 355 352 350 347 344 335 333 332 331 333 334 334 337 335 334 331 333 332 330 330 331 329 328 327 325 322 322 323 321 321
359 361 363 364 366 367 366 365 364 362 362 358 353 351 349 348 344 340 337 337 337 336 337 336 336 336 334 333 334 332 331 330 329 327 324 322 319 320 321 321 316 317 318
365 364 369 370 368 367 366 365 363 360 357 354 352 349 348 345 343 340 339 340 339 338 337 338 336 335 335 335 332 330 328 325 322 320 318 319 320 316 316 314 313 313 312
367 370 370 369 368 366 363 359 356 354 351 349 348 346 345 344 342 341 340 339 340 338 338 337 335 334 333 331 331 328 324 320 319 319 320 321 317 316 313 312 311 309 308
367 366 363 360 358 357 356 356 353 350 348 346 345 344 343 341 342 342 342 341 338 335 336 336 330 328 329 329 326 323 321 320 319 320 320 318 317 314 313 311 308 307 306
357 353 352 350 349 348 349 348 348 347 346 344 343 342 343 343 342 341 340 338 336 335 333 327 327 326 324 323 322 322 321 321 320 320 320 318 314 313 311 308 308 307 307
351 351 344 341 341 341 340 337 342 344 344 343 344 344 343 342 341 338 337 334 333 331 327 326 325 324 324 324 323 322 322 323 322 321 318 314 312 310 307 308 307 306 307
348 346 343 339 337 335 335 332 324 331 334 336 336 336 339 339 339 334 329 328 328 327 326 327 329 325 323 324 326 324 324 323 322 316 313 308 307 307 307 307 306 306 307
347 347 345 342 339 336 334 331 330 328 327 328 331 332 333 334 333 329 327 325 324 324 325 322 321 320 323 322 321 318 314 313 311 310 308 306 306 307 306 305 305 306 306
346 346 345 343 342 340 337 333 332 327 325 326 326 328 329 328 328 326 325 323 320 320 318 319 318 317 316 315 314 313 313 311 310 307 306 307 307 305 305 305 306 305 305
343 344 345 343 342 341 340 336 332 329 323 322 322 324 323 323 321 320 318 318 320 320 318 315 315 315 314 314 313 313 311 308 307 306 307 306 304 304 304 305 305 305 306
335 336 336 335 336 336 334 332 333 329 325 323 322 323 323 321 319 317 317 316 318 320 317 316 315 314 314 313 313 311 308 306 305 306 304 304 304 304 305 304 304 305 305
335 334 335 334 333 332 331 331 333 331 328 326 325 324 323 320 319 320 319 319 320 318 317 316 316 314 312 310 309 306 304 304 305 304 303 303 303 304 304 304 305 305 304
332 330 331 331 333 330 329 330 332 332 331 329 327 324 320 321 322 323 321 320 320 318 317 316 316 314 312 310 308 306 303 303 303 303 303 303 303 303 304 304 304 304 303
331 330 330 329 329 329 328 327 327 329 330 329 326 325 323 321 322 324 322 321 319 318 317 316 315 313 311 309 305 303 301 302 302 302 301 298 301 303 303 303 302 302 302
329 330 330 329 328 328 328 327 326 327 326 325 325 324 323 322 323 324 322 320 319 317 317 316 315 313 312 310 307 303 301 301 301 300 299 297 296 302 303 301 301 302 302
327 328 328 328 327 327 326 324 325 326 326 326 325 324 324 324 324 322 321 320 318 318 317 316 314 312 311 309 308 305 302 301 300 297 295 295 297 302 303 302 302 302 302
Wind_Speed
42 40 37 39 42 40 39 32 34 28 27 25 38 38 33 31 30 29 27 23 24 24 22 19 16 16 15 12 6 2 2 4 4 10 8 7 7 12 15 15 17 16 17
43 40 41 37 36 39 39 40 37 35 34 29 34 39 37 35 33 33 30 28 27 27 26 23 20 17 17 13 13 10 8 7 8 11 16 18 18 17 18 18 17 18 18
41 40 38 37 36 38 40 37 42 40 39 36 36 40 41 38 37 35 34 31 29 28 29 24 23 20 19 17 14 13 12 10 10 12 16 18 21 21 22 18 21 19 18
42 41 39 39 40 40 37 40 39 42 43 44 40 41 41 40 38 36 35 33 33 26 28 26 25 24 22 20 18 17 15 13 14 16 18 20 20 18 17 10 13 15 16
42 41 41 40 38 37 36 36 43 38 42 43 40 38 38 37 38 38 36 37 32 28 26 27 28 26 23 22 21 18 18 17 17 18 19 21 21 17 11 10 11 15 18
42 43 40 38 37 37 37 36 34 38 36 37 40 39 36 35 35 37 36 36 33 28 28 28 26 26 23 23 23 19 20 20 19 21 23 21 25 19 19 19 20 16 7
41 39 40 39 38 38 35 34 33 35 32 34 36 36 34 35 32 30 33 34 33 27 27 29 27 27 25 22 24 19 19 18 17 19 21 22 20 21 18 18 19 17 20
40 39 39 40 39 36 35 34 32 31 33 30 31 33 33 32 31 31 31 29 25 25 26 27 28 26 22 20 18 16 20 19 19 18 18 19 21 21 22 21 21 22 26
37 39 40 41 37 36 36 32 33 29 26 31 29 29 30 24 27 25 27 28 29 27 22 20 26 25 22 21 20 21 22 22 19 16 15 15 16 21 21 21 21 24 16
38 39 38 38 37 36 34 32 30 30 30 28 30 29 28 26 24 26 27 23 24 24 25 26 26 24 22 21 21 19 20 17 13 11 10 10 12 17 21 24 28 23 20
35 32 34 35 34 34 34 31 32 32 29 26 24 22 24 25 24 23 25 26 26 23 22 22 23 25 25 23 21 18 14 11 10 11 12 16 17 17 20 12 7 9 14
28 30 29 32 31 33 34 31 31 29 26 23 21 23 21 21 21 20 23 27 23 21 18 18 15 17 19 18 17 15 12 10 9 11 10 11 14 8 8 10 11 12 15
31 30 31 31 30 33 32 29 26 25 22 18 19 18 18 17 17 19 23 25 24 20 14 11 11 12 14 14 12 8 9 9 6 5 7 10 12 11 9 14 14 14 15
29 28 29 31 31 29 28 27 27 24 21 20 19 18 16 15 17 19 20 22 22 24 20 15 9 8 8 9 10 12 11 8 8 9 10 11 8 8 13 13 15 16 20
29 29 29 27 31 28 26 21 22 20 19 19 18 17 17 17 18 17 16 17 19 18 14 11 10 10 11 11 12 13 11 10 13 13 12 9 5 10 10 14 15 18 20
28 25 27 28 30 29 28 24 17 15 12 11 8 14 15 12 12 13 12 11 12 14 14 12 13 14 15 16 17 15 15 16 17 12 5 6 8 7 12 15 14 18 20
28 26 24 26 26 26 26 27 24 19 15 15 14 8 9 13 16 14 13 12 13 12 12 11 14 12 11 11 17 18 15 14 10 6 1 2 5 9 15 12 16 19 17
30 27 21 25 24 24 23 22 26 25 21 19 16 15 13 15 16 15 15 14 12 12 11 11 9 6 6 7 5 9 12 10 6 1 6 9 8 11 9 13 17 16 20
25 25 20 23 26 28 26 24 23 17 21 24 19 17 17 17 16 16 15 11 8 7 10 1 9 14 14 12 11 8 5 4 4 6 4 6 9 6 9 14 17 18 23
21 17 17 17 20 25 25 21 21 20 22 25 25 25 24 21 20 18 16 13 9 5 15 12 10 8 6 5 4 2 2 3 4 8 6 2 5 8 11 15 14 20 24
18 19 19 21 19 19 16 14 27 26 23 25 25 26 28 27 24 20 17 15 14 10 14 11 10 7 2 1 3 3 2 4 8 3 5 3 5 9 13 12 15 21 19
12 17 14 17 18 19 16 12 27 24 23 24 22 21 25 22 19 18 17 15 16 14 16 14 9 6 5 6 6 3 1 2 1 7 4 1 4 9 11 13 18 21 17
7 10 11 10 9 7 9 13 26 22 23 22 24 24 24 25 20 18 23 19 16 18 15 11 9 11 8 5 5 4 3 1 5 3 0 3 4 8 12 14 18 17 17
17 16 15 18 15 11 11 16 19 19 22 23 25 27 27 24 17 10 19 19 17 20 17 15 11 13 12 10 8 6 6 6 5 4 5 6 6 6 12 16 12 18 19
10 15 13 14 14 9 13 13 18 20 22 21 21 21 25 20 17 16 24 24 22 17 19 18 16 17 14 13 11 9 10 9 7 7 9 10 8 7 11 10 10 17 18
16 15 13 12 11 11 9 7 9 18 19 23 21 22 22 22 22 19 24 25 24 22 18 18 18 19 18 17 12 10 9 6 7 8 7 7 7 5 7 9 10 17 15
Wind_Direction
190 195 198 204 212 214 215 214 214 212 218 215 208 207 205 204 204 205 211 212 215 213 215 215 224 220 225 221 228 225 247 256 227 274 288 272 250 259 271 277 274 282 292
190 193 199 201 205 211 214 214 215 217 216 216 209 210 209 208 206 207 210 212 213 215 216 216 217 208 222 222 222 232 224 242 279 281 284 288 289 290 291 293 270 279 289
188 193 197 200 202 207 212 212 217 219 221 219 214 212 212 212 209 212 215 217 219 229 223 222 224 219 222 223 223 235 241 250 265 270 280 284 286 286 285 267 274 279 293
187 192 196 199 203 207 209 211 212 216 218 220 217 217 214 213 212 215 217 218 219 224 226 228 228 226 228 227 223 230 245 253 257 265 268 271 278 290 288 271 284 295 291
187 192 199 201 203 206 209 209 213 214 216 218 216 214 213 213 213 215 220 220 221 224 226 230 235 230 236 234 234 236 241 255 261 269 270 274 276 282 270 290 292 296 293
190 195 196 199 200 204 208 208 207 211 216 214 215 217 215 214 217 218 222 222 221 228 232 232 233 232 234 238 239 241 251 251 260 265 272 266 273 274 285 291 297 303 305
195 195 195 195 199 203 204 204 203 205 211 212 212 215 216 219 216 216 221 224 220 227 232 233 232 234 235 244 247 250 251 255 263 276 275 276 275 278 280 282 279 276 270
195 197 195 195 198 199 199 199 199 201 205 202 207 214 217 220 217 218 219 220 221 226 235 238 238 240 242 249 254 254 262 272 284 286 278 280 278 285 279 276 281 283 286
193 195 196 194 194 194 194 191 195 195 195 203 204 207 209 209 216 218 216 218 220 226 226 238 242 245 242 243 256 268 276 276 285 283 276 282 283 279 276 281 273 274 279
198 198 194 191 191 189 184 185 187 192 193 198 200 205 209 209 212 216 208 211 222 232 240 252 242 235 236 241 250 258 262 271 265 246 264 275 286 289 288 285 284 272 275
196 190 183 185 183 177 174 177 181 185 187 188 185 199 207 214 215 211 215 216 226 235 246 243 242 237 239 244 244 248 253 250 251 268 281 293 296 303 304 311 326 296 274
173 172 171 164 163 163 166 169 172 172 173 174 179 180 197 205 213 210 216 223 229 236 239 238 236 230 237 235 238 240 245 247 266 288 302 301 308 330 321 329 327 321 313
155 149 145 148 149 158 156 147 148 159 149 152 165 181 192 206 212 222 227 228 230 229 236 232 224 229 238 247 235 230 230 247 265 292 302 292 305 321 332 329 326 323 319
127 127 130 123 124 135 141 150 152 154 154 163 174 191 203 211 202 206 213 216 221 227 235 243 236 239 228 218 213 220 230 243 253 255 266 288 303 318 332 332 328 323 318
111 109 108 116 127 127 126 131 145 154 166 172 193 195 193 186 210 217 207 201 205 212 208 194 191 196 208 214 223 233 232 240 247 256 272 272 293 325 324 322 316 315 317
118 118 122 121 125 128 124 111 128 145 166 180 191 197 201 197 189 180 179 191 199 196 190 196 207 221 230 235 228 229 240 246 253 264 234 280 306 320 322 317 318 319 316
124 124 125 127 126 128 130 131 119 124 138 138 139 164 172 161 168 170 171 171 176 178 201 212 221 237 260 229 229 232 238 249 249 216 268 33 343 327 321 319 325 323 322
125 121 127 131 141 138 142 146 144 139 136 127 137 141 151 164 168 164 157 158 166 194 217 233 231 272 198 181 151 133 122 121 119 50 332 322 316 319 326 336 330 325 329
129 139 157 157 157 152 153 158 152 163 151 145 147 150 158 163 161 167 171 176 185 223 230 146 114 113 111 112 108 105 96 68 8 338 347 337 321 329 343 331 329 332 331
132 150 176 171 161 154 161 161 165 169 159 159 169 168 166 169 173 179 183 186 191 137 138 124 117 112 105 101 95 62 2 344 309 297 271 283 26 0 338 331 329 332 328
105 100 122 121 134 154 167 164 169 172 166 170 178 181 181 180 184 185 188 193 188 174 152 140 120 103 77 316 276 285 285 287 296 208 118 57 9 346 340 331 332 333 332
113 109 147 152 173 167 180 187 168 176 168 173 178 183 189 186 190 193 193 190 193 171 166 160 153 146 131 140 138 157 188 346 141 136 125 60 332 336 337 328 336 334 336
77 99 120 137 185 157 121 158 171 173 168 176 187 179 183 190 198 217 208 202 209 177 174 180 173 173 184 217 248 263 246 160 149 150 172 303 278 328 335 329 335 337 337
155 141 132 127 134 132 145 130 135 148 164 170 182 187 191 196 202 217 206 193 187 188 196 199 194 181 185 194 189 201 206 222 232 262 292 304 266 292 328 329 330 341 339
153 133 152 159 146 159 162 172 168 163 164 169 179 189 199 205 215 228 195 192 197 211 215 219 211 191 190 208 217 210 213 211 225 260 280 288 275 277 325 321 328 341 342
153 152 163 161 146 157 178 168 166 164 168 177 184 191 195 203 207 196 195 198 203 210 217 214 206 200 194 203 208 217 214 237 276 284 276 260 237 289 322 324 330 339 339